Regional Weather Roundup
Issued by NWS

Home | Current Version | Previous Version | Graphics & Text | Print | Product List | Glossary On
Versions: 1 2 3 4 5 6 7 8 9 10 11 12 13 14 15 16 17 18 19 20 21 22 23 24 25 26 27 28 29 30 31 32 33 34 35 36 37 38 39 40 41 42 43 44 45 46 47 48 49 50
000
ASUS43 KLMK 220202
RWRKY
KENTUCKY REGIONAL WEATHER ROUNDUP
NATIONAL WEATHER SERVICE LOUISVILLE KY
900 PM EST FRI NOV 21 2014

NOTE "FAIR" INDICATES FEW OR NO CLOUDS BELOW 12,000 FEET
WITH NO SIGNIFICANT WEATHER AND/OR OBSTRUCTIONS TO VISIBILITY.

KYZ001>023-026-027-061>063-070>075-220300-
WESTERN AND SOUTH CENTRAL KENTUCKY

CITY           SKY/WX    TMP DP  RH WIND       PRES   REMARKS
PADUCAH        CLOUDY    46  27  47 E6        30.32F
HENDERSON      CLOUDY    41  19  42 SE3       30.36S
OWENSBORO      CLOUDY    41  21  44 SE8       30.37S
HOPKINSVILLE   CLOUDY    45  25  45 E3        30.35F
BOWLING GREEN  CLOUDY    40  22  48 NE3       30.39S
GLASGOW        NOT AVBL
$$

KYZ024-025-028>034-038-045-046-053-220300-
NORTH CENTRAL KENTUCKY

CITY           SKY/WX    TMP DP  RH WIND       PRES   REMARKS
LOUISVILLE/SDF MOCLDY    34  13  41 SE6       30.40F WCI  29
LOUISVILLE/LOU PTCLDY    35  13  40 E6        30.40F WCI  30
FORT KNOX      CLOUDY    34  16  47 E7        30.37F WCI  28
$$

KYZ035>037-039>044-047>052-055>060-089>105-220300-
NORTHEAST KENTUCKY

CITY           SKY/WX    TMP DP  RH WIND       PRES   REMARKS
LEXINGTON      CLEAR     31  12  45 SE5       30.42R WCI  26
COVINGTON      CLEAR     28   9  44 CALM      30.42S
FRANKFORT      CLEAR     27  13  55 CALM      30.42F
$$

KYZ054-064>069-076>088-106>120-220300-
SOUTHEAST KENTUCKY

CITY           SKY/WX    TMP DP  RH WIND       PRES   REMARKS
JACKSON        CLEAR     32  10  40 E3        30.41F
LONDON         CLEAR     31  16  54 CALM      30.41S
SOMERSET       NOT AVBL
MIDDLESBORO    NOT AVBL
MONTICELLO     CLEAR     22  19  88 CALM      30.44F
$$




USA.gov is the U.S. government's official web portal to all federal, state and local government web resources and services.